Meteopurmerend
purmerend
Purmerend - Baaienwijk



My webcam  My webcam


waarschuwing voor Onweer Meer informatie blitzortung!


Regen radar Meer informatie rain snow radar


Bezoek onze andere website:

CandyAppleRed WebdesignWebdesign Purmerend Candy Apple Red

MeteopurmerendBlog

Template documentation
and downloads



Onweer van: 26-07-2021 13:00 tot: 21:00 waarschuwing voor: Onweer niveau: Geel info button
Enkele onweersbuien, lokaal met hagel en veel neerslag in korte tijd.Kans op blikseminslag, hagel en veel neerslag in korte tijd.Verkeer en buitenactiviteiten kunnen hinder ondervinden.Mijd open water en open gebied, schuil niet onder bomen.Volg weerberichten en waarschuwingen.

15 daagse weersverwachting Plymouth (GB)

  • Overzicht
  • Per uur
  • 15 dagen
  • Extra
  • Vergelijk
  • Kaarten
  • Dagkaart
  • Meer »
  • Info
  • Statistieken
  • Directe link
    Temp 6h Neerslag Wind  
 05:39     21:08    Daglengte: 15:29 Vandaag
19:00
20°
1.2 mm
4
 05:40     21:07    Daglengte: 15:27 Morgen
01:00
17°
0.5 mm
2
07:00
16°
9.0 mm
2
13:00
19°
8.1 mm
4
19:00
18°
11.3 mm
6
 05:41     21:06    Daglengte: 15:25 Woensdag 28 Jul
01:00
16°
 
3
07:00
15°
 
4
13:00
17°
19.8 mm
7
19:00
17°
24.4 mm
7
 05:43     21:04    Daglengte: 15:21 Donderdag 29 Jul
01:00
14°
18.6 mm
5
07:00
15°
 
3
13:00
17°
38.5 mm
5
Locatie info
Region: England
Latitude: 50.3762°N
Longitude: -4.1366°E
14 masl
Postcode: PL4 8
Temp/Neerslag /Baro Onweer/Dauwpunt
    Temp Baro 1h Neerslag Dauwpunt Wind UV Bewolking  
 05:39     21:08    Daglengte: 15:29 Vandaag
16:00
22°
1011.0 hPa
44%
15.3°
4
Windvlaag: 5.2 m/s
75%
17:00
21°
1011.0 hPa 0.5 mm
60%
14.8°
4
Windvlaag: 1.9 m/s
80%
18:00
21°
1011.0 hPa 0.7 mm
60%
14.9°
4
Windvlaag: 1.4 m/s
80%
19:00
20°
1010.7 hPa
58%
15.8°
4
Windvlaag: 2 m/s
85%
20:00
19°
1010.9 hPa
33%
16.5°
4
Windvlaag: 1.9 m/s
86%
21:00
19°
1011.0 hPa
67%
16.4°
3
Windvlaag: 1.6 m/s
84%
22:00
18°
1011.1 hPa
67%
16.6°
2
Windvlaag: 0.4 m/s
85%
23:00
18°
1011.0 hPa
74%
16.3°
2
Windvlaag: -0.7 m/s
86%
 05:40     21:07    Daglengte: 15:27 Morgen
00:00
17°
1010.8 hPa 0.5 mm
80%
16.1°
2
Windvlaag: 3.6 m/s
72%
01:00
17°
1010.5 hPa
80%
16.0°
2
Windvlaag: 2.6 m/s
84%
02:00
17°
1010.1 hPa 0.8 mm
82%
15.8°
2
Windvlaag: 3.4 m/s
86%
03:00
16°
1009.3 hPa 2.1 mm
82%
15.6°
2
Windvlaag: 5.8 m/s
86%
04:00
16°
1008.6 hPa 2.6 mm
82%
15.5°
3
Windvlaag: 7.9 m/s
85%
05:00
16°
1007.9 hPa 3.5 mm
82%
15.6°
3
Windvlaag: 6.4 m/s
85%
06:00
16°
1007.9 hPa
82%
15.5°
2
Windvlaag: 4.8 m/s
86%
07:00
16°
1007.9 hPa
82%
15.4°
2
Windvlaag: 2.4 m/s
86%
08:00
16°
1007.9 hPa 2.5 mm
75%
15.4°
2
Windvlaag: 1.3 m/s
86%
09:00
17°
1007.9 hPa 2.8 mm
71%
14.9°
3
Windvlaag: 3 m/s
85%
10:00
17°
1007.6 hPa
68%
15.0°
3
Windvlaag: 3.3 m/s
84%
11:00
18°
1007.4 hPa
31%
15.1°
3
Windvlaag: 4.3 m/s
36%
12:00
19°
1007.2 hPa
36%
15.0°
4
Windvlaag: 4.4 m/s
26%
13:00
19°
1007.1 hPa 2.7 mm
78%
14.5°
4
Windvlaag: 4.4 m/s
45%
14:00
19°
1007.0 hPa 3.1 mm
82%
14.3°
5
Windvlaag: 4 m/s
72%
15:00
19°
1007.1 hPa 3.2 mm
82%
14.4°
6
Windvlaag: -1.4 m/s
45%
16:00
19°
1007.4 hPa 2.5 mm
82%
15.2°
6
Windvlaag: -1.8 m/s
54%
17:00
18°
1007.9 hPa 2.6 mm
82%
15.5°
6
Windvlaag: -1.1 m/s
65%
18:00
18°
1008.2 hPa
81%
14.8°
6
Windvlaag: -0.3 m/s
55%
19:00
18°
1008.3 hPa
59%
14.2°
6
Windvlaag: 1.3 m/s
17%
20:00
17°
1008.7 hPa
17%
13.7°
5
Windvlaag: 0.7 m/s
15%
21:00
17°
1009.0 hPa
18%
13.7°
5
Windvlaag: 0.3 m/s
13%
22:00
17°
1009.7 hPa
21%
13.4°
4
Windvlaag: 0.1 m/s
13%
23:00
16°
1009.8 hPa
27%
12.9°
4
Windvlaag: 0.1 m/s
14%
 05:41     21:06    Daglengte: 15:25 Woensdag 28 Jul
00:00
16°
1009.8 hPa
26%
12.7°
3
Windvlaag: 0.7 m/s
15%
01:00
16°
1009.7 hPa
25%
12.6°
3
Windvlaag: 1.6 m/s
16%
02:00
15°
1009.5 hPa
28%
12.6°
4
Windvlaag: 1.8 m/s
26%
03:00
15°
1009.5 hPa
34%
12.9°
4
Windvlaag: 0.8 m/s
36%
04:00
15°
1009.3 hPa
34%
12.7°
3
Windvlaag: 1 m/s
40%
05:00
15°
1009.4 hPa
75%
12.5°
3
Windvlaag: 2.3 m/s
18%
06:00
15°
1009.5 hPa
72%
12.6°
3
Windvlaag: 1.9 m/s
29%
07:00
15°
1009.5 hPa
32%
12.9°
4
Windvlaag: 3 m/s
44%
08:00
16°
1009.6 hPa
76%
12.9°
4
Windvlaag: 3.4 m/s
12%
09:00
16°
1009.7 hPa 2.8 mm
81%
13.0°
5
Windvlaag: 4.9 m/s
25%
10:00
17°
1008.9 hPa 4.3 mm
98%
13.5°
7
Windvlaag: 5.7 m/s
55%
11:00
17°
1008.8 hPa 4.3 mm
100%
12.8°
6
Windvlaag: 5.4 m/s
42%
12:00
17°
1008.8 hPa 2.8 mm
100%
13.7°
6
Windvlaag: 3.8 m/s
74%
13:00
17°
1008.6 hPa 5.6 mm
99%
15.7°
7
Windvlaag: 6.6 m/s
37%
14:00
18°
1008.5 hPa 6.0 mm
96%
13.1°
7
Windvlaag: 4.9 m/s
58%
15:00
18°
1008.5 hPa 6.0 mm
92%
11.6°
7
Windvlaag: 4.9 m/s
39%
16:00
18°
1008.5 hPa
43%
12.6°
7
Windvlaag: 4.8 m/s
34%
17:00
17°
1008.5 hPa 6.3 mm
34%
13.0°
7
Windvlaag: 5.3 m/s
56%
18:00
17°
1008.4 hPa 6.1 mm
29%
11.9°
7
Windvlaag: 3.5 m/s
44%
19:00
17°
1008.4 hPa
26%
10.7°
7
Windvlaag: 3.5 m/s
31%
20:00
16°
1008.6 hPa 6.1 mm
25%
11.5°
7
Windvlaag: 3.4 m/s
48%
21:00
15°
1008.8 hPa 6.2 mm
28%
11.5°
7
Windvlaag: 2.5 m/s
19%
22:00
15°
1009.2 hPa 6.2 mm
36%
11.8°
6
Windvlaag: 2.4 m/s
15%
23:00
15°
1009.4 hPa
37%
11.3°
5
Windvlaag: 2.4 m/s
12%
 05:43     21:04    Daglengte: 15:21 Donderdag 29 Jul
00:00
15°
1009.6 hPa
38%
11.2°
4
Windvlaag: 1.8 m/s
6%
01:00
14°
1009.7 hPa
31%
10.7°
5
Windvlaag: 1.9 m/s
17%
02:00
14°
1009.7 hPa
34%
10.8°
4
Windvlaag: 2.5 m/s
44%
03:00
14°
1009.7 hPa
29%
11.4°
5
Windvlaag: 2.5 m/s
59%
04:00
14°
1009.9 hPa
37%
11.9°
4
Windvlaag: 2.5 m/s
57%
05:00
14°
1010.3 hPa
38%
12.4°
4
Windvlaag: 2.1 m/s
64%
06:00
13°
1010.5 hPa
33%
12.2°
3
Windvlaag: 2 m/s
13%
07:00
15°
1010.8 hPa
36%
12.5°
3
Windvlaag: 1.2 m/s
22%
08:00
16°
1011.0 hPa
36%
12.2°
4
Windvlaag: 11 m/s
51%
09:00
16°
1011.3 hPa
38%
11.4°
4
Windvlaag: 10.6 m/s
75%
10:00
16°
1011.3 hPa 6.6 mm
100%
11.1°
4
Windvlaag: 10.3 m/s
99%
11:00
16°
1011.6 hPa 6.9 mm
100%
9.4°
4
Windvlaag: 10.1 m/s
89%
12:00
17°
1011.1 hPa
57%
8.7°
5
Windvlaag: 10.1 m/s
84%
13:00
17°
1011.0 hPa 6.3 mm
100%
8.6°
5
Windvlaag: 10.2 m/s
94%
Temp/Neerslag /Baro Onweer/Dauwpunt
    Temp Baro Neerslag Dauwpunt Wind Bewolking  
 05:39     21:08    Daglengte: 15:29 Vandaag
16:00
22°
1011.0 hPa   15.3°
4
75%
19:00
20°
1010.7 hPa 1.2 mm 15.8°
4
85%
22:00
18°
1011.1 hPa   16.6°
2
85%
 05:40     21:07    Daglengte: 15:27 Morgen
01:00
17°
1010.5 hPa 0.5 mm 16.0°
2
84%
04:00
16°
1008.6 hPa 5.5 mm 15.5°
3
85%
07:00
16°
1007.9 hPa 3.5 mm 15.4°
2
86%
10:00
17°
1007.6 hPa 5.3 mm 15.0°
3
84%
13:00
19°
1007.1 hPa 2.7 mm 14.5°
4
45%
16:00
19°
1007.4 hPa 8.7 mm 15.2°
6
54%
19:00
18°
1008.3 hPa 2.6 mm 14.2°
6
17%
22:00
17°
1009.7 hPa   13.4°
4
13%
 05:41     21:06    Daglengte: 15:25 Woensdag 28 Jul
01:00
16°
1009.7 hPa   12.6°
3
16%
04:00
15°
1009.3 hPa   12.7°
3
40%
07:00
15°
1009.5 hPa   12.9°
4
44%
10:00
17°
1008.9 hPa 7.0 mm 13.5°
7
55%
13:00
17°
1008.6 hPa 12.7 mm 15.7°
7
37%
16:00
18°
1008.5 hPa 12.0 mm 12.6°
7
34%
19:00
17°
1008.4 hPa 12.4 mm 10.7°
7
31%
22:00
15°
1009.2 hPa 18.6 mm 11.8°
6
15%
 05:43     21:04    Daglengte: 15:21 Donderdag 29 Jul
01:00
14°
1009.7 hPa   10.7°
5
17%
04:00
14°
1009.9 hPa   11.9°
4
57%
07:00
15°
1010.8 hPa   12.5°
3
22%
10:00
16°
1011.3 hPa 6.6 mm 11.1°
4
99%
13:00
17°
1011.0 hPa 19.5 mm 8.6°
5
94%
16:00
18°
1012.2 hPa 14.2 mm 10.8°
7
1%
19:00
17°
1012.1 hPa 14.3 mm 12.4°
6
1%
22:00
15°
1012.0 hPa 14.4 mm 13.3°
4
1%
 05:44     21:03    Daglengte: 15:19 Vrijdag 30 Jul
01:00
15°
1010.7 hPa 14.5 mm 13.8°
4
1%
04:00
15°
1007.8 hPa 15.3 mm 14.9°
7
1%
07:00
16°
1005.4 hPa 16.6 mm 15.7°
9
1%
10:00
17°
1003.0 hPa 19.0 mm 15.5°
9
1%
13:00
16°
1003.7 hPa 19.5 mm 12.0°
12
1%
16:00
14°
1003.9 hPa 24.2 mm 13.3°
14
1%
19:00
14°
1004.7 hPa 25.5 mm 13.2°
13
1%
22:00
15°
1005.9 hPa 26.1 mm 14.0°
10
1%
 05:46     21:01    Daglengte: 15:15 Zaterdag 31 Jul
01:00
15°
1007.1 hPa 26.6 mm 14.0°
8
1%
04:00
14°
1007.9 hPa 26.7 mm 13.4°
5
1%
07:00
15°
1009.0 hPa 26.7 mm 13.9°
4
1%
10:00
18°
1009.7 hPa 26.7 mm 13.9°
5
0%
13:00
19°
1010.5 hPa 26.9 mm 12.7°
7
0%
16:00
18°
1011.0 hPa 27.1 mm 13.4°
8
1%
19:00
17°
1011.4 hPa 27.1 mm 13.2°
6
1%
22:00
14°
1012.7 hPa 27.1 mm 12.1°
3
0%
 05:47     20:59    Daglengte: 15:12 Zondag 01 Aug
01:00
14°
1012.3 hPa 27.2 mm 12.3°
4
0%
04:00
13°
1012.0 hPa 27.2 mm 11.9°
4
0%
07:00
13°
1012.4 hPa 27.2 mm 11.9°
4
0%
10:00
16°
1013.2 hPa 27.2 mm 11.4°
5
0%
13:00
17°
1013.8 hPa 27.4 mm 9.9°
5
0%
16:00
17°
1014.6 hPa 27.4 mm 9.3°
6
0%
19:00
16°
1015.7 hPa 27.4 mm 10.1°
6
0%
22:00
12°
1017.1 hPa 27.4 mm 9.8°
4
0%
 05:48     20:58    Daglengte: 15:10 Maandag 02 Aug
01:00
11°
1017.4 hPa 27.4 mm 9.1°
3
0%
04:00
11°
1017.1 hPa 27.4 mm 8.7°
2
0%
07:00
12°
1017.4 hPa 27.4 mm 10.0°
1
0%
10:00
16°
1017.7 hPa 27.4 mm 11.8°
1
0%
13:00
18°
1017.3 hPa 54.8 mm 10.6°
2
0%
19:00
18°
1016.8 hPa 55.0 mm 13.6°
4
0%
 05:50     20:56    Daglengte: 15:06 Dinsdag 03 Aug
01:00
15°
1017.3 hPa 55.0 mm 13.4°
2
1%
07:00
16°
1015.2 hPa 55.1 mm 15.4°
7
1%
13:00
19°
1013.8 hPa 57.1 mm 14.5°
9
1%
19:00
18°
1012.4 hPa 59.0 mm 14.4°
8
1%
 05:51     20:55    Daglengte: 15:04 Woensdag 04 Aug
01:00
16°
1011.5 hPa 59.8 mm 14.8°
7
1%
07:00
15°
1010.7 hPa 60.6 mm 14.2°
6
0%
13:00
19°
1010.9 hPa 62.1 mm 12.4°
7
0%
19:00
18°
1011.2 hPa 63.0 mm 14.0°
7
0%
 05:53     20:53    Daglengte: 15:00 Donderdag 05 Aug
01:00
16°
1010.4 hPa 63.3 mm 14.7°
5
1%
07:00
16°
1007.2 hPa 68.8 mm 14.8°
6
1%
13:00
18°
1009.9 hPa 0.8 mm 13.2°
4
60%
19:00
17°
1009.5 hPa 0.6 mm 13.4°
5
51%
 05:54     20:51    Daglengte: 14:57 Vrijdag 06 Aug
01:00
14°
1009.7 hPa 0.3 mm 12.5°
4
45%
07:00
14°
1009.0 hPa 0.5 mm 12.7°
3
51%
13:00
18°
1010.3 hPa 0.5 mm 13.0°
5
54%
19:00
17°
1010.5 hPa 0.6 mm 13.0°
6
43%
 05:56     20:49    Daglengte: 14:53 Zaterdag 07 Aug
01:00
14°
1011.4 hPa 0.2 mm 12.9°
4
41%
07:00
14°
1011.6 hPa 0.2 mm 12.7°
4
39%
13:00
18°
1013.1 hPa 0.5 mm 12.8°
5
56%
19:00
17°
1012.6 hPa 0.7 mm 13.0°
5
59%
 05:57     20:48    Daglengte: 14:51 Zondag 08 Aug
01:00
14°
1012.9 hPa 0.5 mm 13.0°
3
56%
07:00
15°
1012.2 hPa 0.8 mm 13.3°
3
65%
13:00
18°
1013.5 hPa 1.2 mm 13.2°
5
72%
19:00
17°
1013.6 hPa 0.6 mm 13.2°
5
55%
 05:59     20:46    Daglengte: 14:47 Maandag 09 Aug
01:00
14°
1014.3 hPa 0.5 mm 12.5°
4
38%
07:00
14°
1014.4 hPa   12.8°
3
49%
13:00
18°
1016.2 hPa 0.6 mm 12.6°
4
49%
19:00
17°
1016.1 hPa 0.5 mm 13.0°
4
46%
 06:00     20:44    Daglengte: 14:44 Dinsdag 10 Aug
01:00
14°
1016.8 hPa 0.6 mm 12.6°
2
47%
07:00
14°
1016.3 hPa 0.7 mm 12.9°
2
55%
13:00
18°
1017.1 hPa 0.6 mm 13.3°
4
63%
  CAPE Lifted Index Hail Supercell Tornado SRH 3km CL BTM PRES CL TOP PRES Swiss DWD icon SMHI TS
 05:39     21:08    Daglengte: 15:29 Vandaag
16:00 498 J/kg -2.6 K 0 % 0 % 0 % 0 m²/s² 0 0 0.04 80
17:00 429 J/kg -2.0 K 0 % 0 % 0 % 0 m²/s² 0 0 -0.14 80
18:00 369 J/kg -1.2 K 0 % 0 % 0 % 0 m²/s² 0 0 0.03 80
19:00 398 J/kg -1.2 K 0 % 0 % 0 % 0 m²/s² 0 0 -0.78 3
20:00 370 J/kg -0.6 K 0 % 0 % 0 % 0 m²/s² 0 0 -0.42 3
21:00 353 J/kg -0.1 K 0 % 0 % 0 % 0 m²/s² 0 0 0.14 80
22:00 281 J/kg 0.5 K 0 % 0 % 0 % 0 m²/s² 0 0 0.74 61
23:00 186 J/kg 1.3 K 0 % 0 % 0 % 0 m²/s² 0 0 1.42 80
 05:40     21:07    Daglengte: 15:27 Morgen
00:00 231 J/kg -0.2 K 0 % 0 % 0 % 0 m²/s² 0 0 0.1 61
01:00 289 J/kg -0.7 K 0 % 0 % 0 % 0 m²/s² 0 0 -0.4 80
02:00 173 J/kg 0.0 K 0 % 0 % 0 % 0 m²/s² 0 0 0.09 80
03:00 147 J/kg -0.4 K 0 % 0 % 0 % 0 m²/s² 0 0 -0.4 61
04:00 440 J/kg -1.6 K 0 % 0 % 0 % 0 m²/s² 0 0 -1.51 61
05:00 528 J/kg -1.8 K 0 % 0 % 0 % 0 m²/s² 0 0 -1.59 80
06:00 340 J/kg -1.3 K 0 % 0 % 0 % 0 m²/s² 0 0 -0.79 80
07:00 367 J/kg -1.3 K 0 % 0 % 0 % 0 m²/s² 0 0 -0.79 61
08:00 513 J/kg -1.9 K 0 % 0 % 0 % 0 m²/s² 0 0 -1.78 61
09:00 348 J/kg -1.0 K 0 % 0 % 0 % 0 m²/s² 0 0 -0.58 61
10:00 315 J/kg -0.9 K 0 % 0 % 0 % 0 m²/s² 0 0 -0.51 3
11:00 127 J/kg 0.5 K 0 % 0 % 0 % 0 m²/s² 0 0 1.19 3
12:00 85 J/kg 1.2 K 0 % 0 % 0 % 0 m²/s² 0 0 2.28 3
13:00 41 J/kg 2.2 K 0 % 0 % 0 % 0 m²/s² 0 0 3.43 3
14:00 29 J/kg 2.6 K 0 % 0 % 0 % 0 m²/s² 0 0 4.22 80
15:00 55 J/kg 2.3 K 0 % 0 % 0 % 0 m²/s² 0 0 5.33 80
16:00 56 J/kg 1.9 K 0 % 0 % 0 % 0 m²/s² 0 0 5.56 80
17:00 86 J/kg 1.6 K 0 % 0 % 0 % 0 m²/s² 0 0 4.81 80
18:00 117 J/kg 1.4 K 0 % 0 % 0 % 0 m²/s² 0 0 4.19 80
19:00 69 J/kg 1.6 K 0 % 0 % 0 % 0 m²/s² 0 0 3.61 2
20:00 56 J/kg 1.7 K 0 % 0 % 0 % 0 m²/s² 0 0 3.26 2
21:00 71 J/kg 1.4 K 0 % 0 % 0 % 0 m²/s² 0 0 2.48 0
22:00 88 J/kg 1.5 K 0 % 0 % 0 % 0 m²/s² 0 0 2.73 1
23:00 143 J/kg 1.6 K 0 % 0 % 0 % 0 m²/s² 0 0 3.34 2
 05:41     21:06    Daglengte: 15:25 Woensdag 28 Jul
00:00 167 J/kg 1.8 K 0 % 0 % 0 % 0 m²/s² 0 0 3.9 1
01:00 197 J/kg 1.8 K 0 % 0 % 0 % 0 m²/s² 0 0 4.32 2
02:00 146 J/kg 2.0 K 0 % 0 % 0 % 0 m²/s² 0 0 4.91 2
03:00 143 J/kg 1.8 K 0 % 0 % 0 % 0 m²/s² 0 0 4.71 3
04:00 154 J/kg 1.5 K 0 % 0 % 0 % 0 m²/s² 0 0 4.65 2
05:00 221 J/kg 1.0 K 0 % 0 % 0 % 0 m²/s² 0 0 4.3 2
06:00 183 J/kg 1.1 K 0 % 0 % 0 % 0 m²/s² 0 0 5.15 2
07:00 197 J/kg 0.7 K 0 % 0 % 0 % 0 m²/s² 0 0 5.53 2
08:00 287 J/kg 0.1 K 0 % 0 % 0 % 0 m²/s² 0 0 3.73 2
09:00 390 J/kg -0.8 K 0 % 0 % 0 % 0 m²/s² 0 0 2.92 80
10:00 436 J/kg -0.9 K 0 % 0 % 0 % 0 m²/s² 0 0 3.9 2
11:00 350 J/kg -0.1 K 0 % 0 % 0 % 0 m²/s² 0 0 3.17 2
12:00 330 J/kg 0.3 K 0 % 0 % 0 % 0 m²/s² 0 0 3.48 3
13:00 377 J/kg -0.3 K 0 % 0 % 0 % 0 m²/s² 0 0 0.12 3
14:00 288 J/kg 1.4 K 0 % 0 % 0 % 0 m²/s² 0 0 6.2 3
15:00 160 J/kg 3.3 K 0 % 0 % 0 % 0 m²/s² 0 0 7.2 2
16:00 194 J/kg 3.6 K 0 % 0 % 0 % 0 m²/s² 0 0 5.16 2
17:00 269 J/kg 3.4 K 0 % 0 % 0 % 0 m²/s² 0 0 8.17 2
18:00 223 J/kg 4.3 K 0 % 0 % 0 % 0 m²/s² 0 0 8.29 1
19:00 198 J/kg 5.4 K 0 % 0 % 0 % 0 m²/s² 0 0 7.26 2
20:00 237 J/kg 4.9 K 0 % 0 % 0 % 0 m²/s² 0 0 7.72 2
21:00 275 J/kg 5.1 K 0 % 0 % 0 % 0 m²/s² 0 0 7.74 1
22:00 354 J/kg 4.6 K 0 % 0 % 0 % 0 m²/s² 0 0 7.63 2
23:00 321 J/kg 4.6 K 0 % 0 % 0 % 0 m²/s² 0 0 7.96 2
 05:43     21:04    Daglengte: 15:21 Donderdag 29 Jul
00:00 266 J/kg 4.4 K 0 % 0 % 0 % 0 m²/s² 0 0 7.94 2
01:00 174 J/kg 4.0 K 0 % 0 % 0 % 0 m²/s² 0 0 7.12 2
02:00 153 J/kg 2.8 K 0 % 0 % 0 % 0 m²/s² 0 0 4.96 3
03:00 155 J/kg 1.6 K 0 % 0 % 0 % 0 m²/s² 0 0 3.85 3
04:00 157 J/kg 1.1 K 0 % 0 % 0 % 0 m²/s² 0 0 3.56 3
05:00 183 J/kg 0.1 K 0 % 0 % 0 % 0 m²/s² 0 0 2.56 3
06:00 199 J/kg -0.4 K 0 % 0 % 0 % 0 m²/s² 0 0 2.6 2
07:00 275 J/kg -1.3 K 0 % 0 % 0 % 0 m²/s² 0 0 1.37 2
08:00 251 J/kg -1.0 K 0 % 0 % 0 % 0 m²/s² 0 0 2 3
09:00 143 J/kg -0.7 K 0 % 0 % 0 % 0 m²/s² 0 0 2.84 3
10:00 207 J/kg -0.9 K 0 % 0 % 0 % 0 m²/s² 0 0 2.64 61
11:00 53 J/kg 1.2 K 0 % 0 % 0 % 0 m²/s² 0 0 5.34 61
12:00 26 J/kg 3.0 K 0 % 0 % 0 % 0 m²/s² 0 0 7.95 3
13:00 36 J/kg 3.9 K 0 % 0 % 0 % 0 m²/s² 0 0 7.74 61
Temp Baro Wind Neerslag
  EWN Forecast EWN WRFDA DWD ICON FMI HIRLAM MET Norway GFS
 05:39     21:08    Daglengte: 15:29 Vandaag
16:00 21.5° 1011.0 hPa 4.2 m/s 0.0 mm 22.4° 1010.4 hPa 5.8 m/s 0.0 mm 20.4° 1011.9 hPa 3.8 m/s -0.2 mm 22.7° 1010.8 hPa 4.3 m/s 0.0 mm 20.2° 1011.0 hPa 6.8 m/s
19:00 19.9° 1010.7 hPa 3.6 m/s 1.2 mm 19.4° 1010.8 hPa 4.0 m/s 0.2 mm 19.9° 1010.6 hPa 2.8 m/s 1.7 mm 20.8° 1010.6 hPa 5.3 m/s 0.0 mm 18.5° 1010.1 hPa 2.7 m/s
22:00 18.1° 1011.1 hPa 2.0 m/s 0.0 mm 17.0° 1011.4 hPa 1.9 m/s 0.2 mm 18.3° 1011.0 hPa 1.5 m/s 0.5 mm 18.5° 1011.1 hPa 3.3 m/s 0.0 mm 16.5° 1011.2 hPa 4.8 m/s
 05:40     21:07    Daglengte: 15:27 Morgen
01:00 17.0° 1010.5 hPa 2.2 m/s 0.5 mm 16.5° 1010.5 hPa 3.0 m/s 0.4 mm 17.1° 1010.6 hPa 2.0 m/s 2.3 mm 17.1° 1010.4 hPa 3.0 m/s 0.0 mm 15.8° 1010.7 hPa 3.4 m/s
04:00 16.5° 1008.6 hPa 2.6 m/s 5.5 mm 16.2° 1009.0 hPa 3.9 m/s 13.3 mm 16.4° 1009.0 hPa 1.5 m/s 3.8 mm 16.9° 1008.4 hPa 2.2 m/s 0.0 mm 15.7° 1008.9 hPa 4.4 m/s
07:00 16.2° 1007.9 hPa 1.6 m/s 3.5 mm 16.2° 1008.1 hPa 4.3 m/s 29.3 mm 16.3° 1008.1 hPa 1.5 m/s 4.9 mm 16.8° 1007.5 hPa 0.6 m/s 0.0 mm 16.1° 1007.9 hPa 4.1 m/s
10:00 17.3° 1007.6 hPa 3.2 m/s 5.3 mm 18.3° 1008.1 hPa 5.0 m/s 32.3 mm 17.8° 1007.2 hPa 2.8 m/s 1.3 mm 17.2° 1008.3 hPa 5.6 m/s 0.0 mm 17.4° 1007.8 hPa 4.6 m/s
13:00 19.5° 1007.1 hPa 3.6 m/s 2.7 mm 19.8° 1009.0 hPa 5.6 m/s 33.8 mm 19.6° 1006.7 hPa 2.4 m/s 0.1 mm 19.5° 1008.0 hPa 8.3 m/s 0.0 mm 18.4° 1008.5 hPa 7.0 m/s
16:00 18.9° 1007.4 hPa 5.8 m/s 8.7 mm 19.5° 1008.0 hPa 7.0 m/s 33.8 mm 19.1° 1007.0 hPa 5.5 m/s 2.6 mm 17.9° 1009.2 hPa 7.6 m/s 0.0 mm 18.2° 1008.5 hPa 8.3 m/s
19:00 17.8° 1008.3 hPa 5.5 m/s 2.6 mm 17.2° 1008.2 hPa 7.0 m/s 34.4 mm 18.5° 1008.2 hPa 5.4 m/s 0.8 mm 17.3° 1010.1 hPa 6.0 m/s 0.0 mm 16.8° 1008.6 hPa 7.7 m/s
22:00 16.5° 1009.7 hPa 4.2 m/s 0.0 mm 16.2° 1009.1 hPa 4.9 m/s 36.0 mm 16.6° 1009.5 hPa 3.5 m/s 0.0 mm 17.0° 1011.6 hPa 4.3 m/s 0.0 mm 16.0° 1009.6 hPa 7.1 m/s
 05:41     21:06    Daglengte: 15:25 Woensdag 28 Jul
01:00 15.5° 1009.7 hPa 3.4 m/s 0.0 mm 15.5° 1008.8 hPa 4.4 m/s 36.6 mm 15.4° 1009.2 hPa 3.3 m/s 0.0 mm 16.6° 1011.9 hPa 3.7 m/s 0.0 mm 14.7° 1009.7 hPa 4.5 m/s
04:00 15.4° 1009.3 hPa 3.4 m/s 0.0 mm 15.1° 1007.8 hPa 4.4 m/s 36.9 mm 15.4° 1009.0 hPa 3.4 m/s 0.0 mm 16.2° 1011.7 hPa 3.9 m/s 0.0 mm 14.3° 1009.2 hPa 5.2 m/s
07:00 15.4° 1009.5 hPa 3.7 m/s 0.0 mm 15.7° 1008.0 hPa 5.0 m/s 37.3 mm 15.3° 1008.8 hPa 4.1 m/s 0.1 mm 16.0° 1012.7 hPa 2.7 m/s 0.0 mm 15.0° 1008.8 hPa 5.2 m/s
10:00 16.9° 1008.9 hPa 6.7 m/s 7.0 mm 17.6° 1007.3 hPa 8.1 m/s 37.5 mm 16.9° 1009.6 hPa 5.2 m/s 0.4 mm 16.8° 1008.3 hPa 8.1 m/s
13:00 16.9° 1008.6 hPa 7.2 m/s 12.7 mm 15.5° 1007.5 hPa 7.8 m/s 42.2 mm 18.2° 1009.3 hPa 6.1 m/s 0.3 mm 17.9° 1008.4 hPa 9.4 m/s
16:00 17.6° 1008.5 hPa 7.2 m/s 12.0 mm 16.7° 1007.3 hPa 7.2 m/s 52.3 mm 18.8° 1009.9 hPa 6.5 m/s 0.1 mm 17.2° 1008.6 hPa 10.1 m/s
19:00 16.8° 1008.4 hPa 7.5 m/s 12.4 mm 16.8° 1007.5 hPa 7.8 m/s 54.2 mm 17.7° 1010.3 hPa 6.1 m/s 0.0 mm 16.1° 1009.1 hPa 9.4 m/s
22:00 15.0° 1009.2 hPa 6.1 m/s 18.6 mm 15.1° 1007.9 hPa 7.1 m/s 54.6 mm 15.6° 1011.2 hPa 4.7 m/s 0.0 mm 15.5° 1010.2 hPa 9.0 m/s
 05:43     21:04    Daglengte: 15:21 Donderdag 29 Jul
01:00 14.5° 1009.7 hPa 4.5 m/s 0.0 mm 14.7° 1007.6 hPa 6.6 m/s 55.2 mm 15.0° 1011.2 hPa 4.3 m/s 0.0 mm 15.2° 1010.7 hPa 8.4 m/s
04:00 14.0° 1009.9 hPa 3.9 m/s 0.0 mm 14.1° 1007.8 hPa 6.4 m/s 55.4 mm 15.0° 1010.9 hPa 3.4 m/s 0.0 mm 14.4° 1011.0 hPa 6.4 m/s
07:00 14.5° 1010.8 hPa 3.1 m/s 0.0 mm 14.9° 1009.5 hPa 4.7 m/s 55.7 mm 15.0° 1011.0 hPa 2.5 m/s 0.0 mm 14.6° 1011.5 hPa 4.9 m/s
10:00 16.3° 1011.3 hPa 4.5 m/s 6.6 mm 17.5° 1011.5 hPa 7.0 m/s 55.9 mm 16.0° 1011.3 hPa 3.8 m/s 0.6 mm 17.3° 1012.5 hPa 6.4 m/s
13:00 17.2° 1011.0 hPa 5.0 m/s 19.5 mm 18.9° 1012.7 hPa 7.3 m/s 56.0 mm 16.7° 1010.5 hPa 4.4 m/s 1.3 mm 18.4° 1012.7 hPa 6.5 m/s
16:00 18.4° 1012.2 hPa 7.4 m/s 14.2 mm 18.4° 1012.2 hPa 7.4 m/s 14.2 mm
19:00 17.2° 1012.1 hPa 5.7 m/s 14.3 mm 17.2° 1012.1 hPa 5.7 m/s 14.3 mm
22:00 14.8° 1012.0 hPa 3.7 m/s 14.4 mm 14.8° 1012.0 hPa 3.7 m/s 14.4 mm
 05:44     21:03    Daglengte: 15:19 Vrijdag 30 Jul
01:00 15.3° 1010.7 hPa 4.5 m/s 14.5 mm 15.3° 1010.7 hPa 4.5 m/s 14.5 mm
04:00 15.4° 1007.8 hPa 7.3 m/s 15.3 mm 15.4° 1007.8 hPa 7.3 m/s 15.3 mm
07:00 16.0° 1005.4 hPa 8.8 m/s 16.6 mm 16.0° 1005.4 hPa 8.8 m/s 16.6 mm
10:00 16.8° 1003.0 hPa 9.1 m/s 19.0 mm 16.8° 1003.0 hPa 9.1 m/s 19.0 mm
13:00 15.7° 1003.7 hPa 11.9 m/s 19.5 mm 15.7° 1003.7 hPa 11.9 m/s 19.5 mm
16:00 14.4° 1003.9 hPa 14.2 m/s 24.2 mm 14.4° 1003.9 hPa 14.2 m/s 24.2 mm
19:00 14.0° 1004.7 hPa 12.8 m/s 25.5 mm 14.0° 1004.7 hPa 12.8 m/s 25.5 mm
22:00 15.0° 1005.9 hPa 10.5 m/s 26.1 mm 15.0° 1005.9 hPa 10.5 m/s 26.1 mm
 05:46     21:01    Daglengte: 15:15 Zaterdag 31 Jul
01:00 15.0° 1007.1 hPa 8.3 m/s 26.6 mm 15.0° 1007.1 hPa 8.3 m/s 26.6 mm
04:00 14.4° 1007.9 hPa 5.1 m/s 26.7 mm 14.4° 1007.9 hPa 5.1 m/s 26.7 mm
07:00 15.0° 1009.0 hPa 3.5 m/s 26.7 mm 15.0° 1009.0 hPa 3.5 m/s 26.7 mm
10:00 17.7° 1009.7 hPa 4.9 m/s 26.7 mm 17.7° 1009.7 hPa 4.9 m/s 26.7 mm
13:00 18.9° 1010.5 hPa 7.1 m/s 26.9 mm 18.9° 1010.5 hPa 7.1 m/s 26.9 mm
16:00 18.0° 1011.0 hPa 7.8 m/s 27.1 mm 18.0° 1011.0 hPa 7.8 m/s 27.1 mm
19:00 17.0° 1011.4 hPa 6.5 m/s 27.1 mm 17.0° 1011.4 hPa 6.5 m/s 27.1 mm
22:00 13.7° 1012.7 hPa 2.9 m/s 27.1 mm 13.7° 1012.7 hPa 2.9 m/s 27.1 mm
 05:47     20:59    Daglengte: 15:12 Zondag 01 Aug
01:00 13.6° 1012.3 hPa 3.7 m/s 27.2 mm 13.6° 1012.3 hPa 3.7 m/s 27.2 mm
04:00 13.2° 1012.0 hPa 3.5 m/s 27.2 mm 13.2° 1012.0 hPa 3.5 m/s 27.2 mm
07:00 13.4° 1012.4 hPa 3.5 m/s 27.2 mm 13.4° 1012.4 hPa 3.5 m/s 27.2 mm
10:00 15.9° 1013.2 hPa 4.7 m/s 27.2 mm 15.9° 1013.2 hPa 4.7 m/s 27.2 mm
13:00 16.7° 1013.8 hPa 5.1 m/s 27.4 mm 16.7° 1013.8 hPa 5.1 m/s 27.4 mm
16:00 17.1° 1014.6 hPa 5.8 m/s 27.4 mm 17.1° 1014.6 hPa 5.8 m/s 27.4 mm
19:00 15.5° 1015.7 hPa 6.0 m/s 27.4 mm 15.5° 1015.7 hPa 6.0 m/s 27.4 mm
22:00 12.0° 1017.1 hPa 3.6 m/s 27.4 mm 12.0° 1017.1 hPa 3.6 m/s 27.4 mm
 05:48     20:58    Daglengte: 15:10 Maandag 02 Aug
01:00 11.0° 1017.4 hPa 2.9 m/s 27.4 mm 11.0° 1017.4 hPa 2.9 m/s 27.4 mm
04:00 11.0° 1017.1 hPa 2.0 m/s 27.4 mm 11.0° 1017.1 hPa 2.0 m/s 27.4 mm
07:00 12.3° 1017.4 hPa 1.1 m/s 27.4 mm 12.3° 1017.4 hPa 1.1 m/s 27.4 mm
10:00 15.9° 1017.7 hPa 1.4 m/s 27.4 mm 15.9° 1017.7 hPa 1.4 m/s 27.4 mm
13:00 18.5° 1017.3 hPa 2.0 m/s 27.4 mm 18.5° 1017.3 hPa 2.0 m/s 27.4 mm
19:00 18.2° 1016.8 hPa 4.1 m/s 27.5 mm 18.2° 1016.8 hPa 4.1 m/s 27.5 mm
 05:50     20:56    Daglengte: 15:06 Dinsdag 03 Aug
01:00 14.5° 1017.3 hPa 2.1 m/s 27.5 mm 14.5° 1017.3 hPa 2.1 m/s 27.5 mm
07:00 16.3° 1015.2 hPa 6.7 m/s 27.6 mm 16.3° 1015.2 hPa 6.7 m/s 27.6 mm
13:00 18.7° 1013.8 hPa 8.5 m/s 28.8 mm 18.7° 1013.8 hPa 8.5 m/s 28.8 mm
19:00 17.7° 1012.4 hPa 8.2 m/s 29.5 mm 17.7° 1012.4 hPa 8.2 m/s 29.5 mm
 05:51     20:55    Daglengte: 15:04 Woensdag 04 Aug
01:00 16.4° 1011.5 hPa 7.0 m/s 30.1 mm 16.4° 1011.5 hPa 7.0 m/s 30.1 mm
07:00 15.3° 1010.7 hPa 5.5 m/s 30.4 mm 15.3° 1010.7 hPa 5.5 m/s 30.4 mm
13:00 18.8° 1010.9 hPa 7.1 m/s 31.3 mm 18.8° 1010.9 hPa 7.1 m/s 31.3 mm
19:00 17.8° 1011.2 hPa 7.5 m/s 31.5 mm 17.8° 1011.2 hPa 7.5 m/s 31.5 mm
 05:53     20:53    Daglengte: 15:00 Donderdag 05 Aug
01:00 15.7° 1010.4 hPa 4.9 m/s 31.7 mm 15.7° 1010.4 hPa 4.9 m/s 31.7 mm
07:00 15.6° 1007.2 hPa 6.2 m/s 35.7 mm 15.6° 1007.2 hPa 6.2 m/s 35.7 mm
13:00 18.5° 1009.9 hPa 4.4 m/s 0.8 mm
19:00 17.4° 1009.5 hPa 4.9 m/s 0.6 mm
 05:54     20:51    Daglengte: 14:57 Vrijdag 06 Aug
01:00 14.3° 1009.7 hPa 3.7 m/s 0.3 mm
07:00 14.2° 1009.0 hPa 3.2 m/s 0.5 mm
13:00 18.1° 1010.3 hPa 5.0 m/s 0.5 mm
19:00 17.0° 1010.5 hPa 5.6 m/s 0.6 mm
 05:56     20:49    Daglengte: 14:53 Zaterdag 07 Aug
01:00 14.4° 1011.4 hPa 4.2 m/s 0.2 mm
07:00 14.0° 1011.6 hPa 3.9 m/s 0.2 mm
13:00 18.0° 1013.1 hPa 5.1 m/s 0.5 mm
19:00 17.1° 1012.6 hPa 5.2 m/s 0.7 mm
 05:57     20:48    Daglengte: 14:51 Zondag 08 Aug
01:00 14.5° 1012.9 hPa 3.4 m/s 0.5 mm
07:00 14.6° 1012.2 hPa 3.3 m/s 0.8 mm
13:00 18.2° 1013.5 hPa 4.7 m/s 1.2 mm
19:00 17.1° 1013.6 hPa 5.2 m/s 0.6 mm
 05:59     20:46    Daglengte: 14:47 Maandag 09 Aug
01:00 14.2° 1014.3 hPa 3.7 m/s 0.5 mm
07:00 14.1° 1014.4 hPa 2.7 m/s 0.0 mm
13:00 18.5° 1016.2 hPa 3.9 m/s 0.6 mm
19:00 17.2° 1016.1 hPa 3.7 m/s 0.5 mm
 06:00     20:44    Daglengte: 14:44 Dinsdag 10 Aug
01:00 14.0° 1016.8 hPa 2.3 m/s 0.6 mm
07:00 14.2° 1016.3 hPa 2.0 m/s 0.7 mm
13:00 18.4° 1017.1 hPa 3.8 m/s 0.6 mm